RGA1 LSMD-LSMD

Flight info

Callsign RGA1
Flight time 0h 25m
Altitude 2500
Route VFR HEMS
Aircraft EC45/L-SDGIJ7RY/S

Departure

Time 2026-05-05 19:08
Airport Dübendorf Air Base (LSMD)

Arrival

Time 2026-05-05 19:33
Airport Dübendorf Air Base (LSMD)
Time Latitude Longitude Altitude Speed Heading
2026-05-05 18:55 47.39612 8.63762 1429 ft 0 kts 185°
2026-05-05 19:04 47.39616 8.63765 1463 ft 6 kts 180°
2026-05-05 19:05 47.39388 8.63929 1639 ft 57 kts 154°
2026-05-05 19:05 47.38960 8.64265 1680 ft 79 kts 153°
2026-05-05 19:05 47.38453 8.64648 1730 ft 84 kts 153°
2026-05-05 19:05 47.37914 8.65012 1794 ft 87 kts 164°
2026-05-05 19:06 47.37333 8.65219 1899 ft 86 kts 165°
2026-05-05 19:06 47.36743 8.65451 1912 ft 95 kts 164°
2026-05-05 19:06 47.36693 8.65478 1909 ft 96 kts 160°
2026-05-05 19:06 47.36127 8.65864 1891 ft 102 kts 159°
2026-05-05 19:07 47.35438 8.66287 1812 ft 110 kts 158°
2026-05-05 19:07 47.35051 8.66533 1855 ft 111 kts 160°
2026-05-05 19:07 47.34503 8.66898 1989 ft 115 kts 150°
2026-05-05 19:07 47.33831 8.67661 2047 ft 130 kts 140°
2026-05-05 19:08 47.33124 8.68507 2136 ft 130 kts 149°
2026-05-05 19:08 47.32288 8.68981 2251 ft 128 kts 166°
2026-05-05 19:08 47.31448 8.69413 2377 ft 127 kts 160°
2026-05-05 19:08 47.30624 8.69884 2505 ft 127 kts 160°
2026-05-05 19:09 47.29806 8.70352 2627 ft 126 kts 160°
2026-05-05 19:09 47.28992 8.70816 2758 ft 125 kts 160°
2026-05-05 19:09 47.28182 8.71275 2876 ft 125 kts 160°
2026-05-05 19:09 47.27375 8.71729 3003 ft 124 kts 160°
2026-05-05 19:10 47.26577 8.72178 3107 ft 125 kts 160°
2026-05-05 19:10 47.25735 8.72657 2985 ft 133 kts 159°
2026-05-05 19:10 47.24885 8.73156 2832 ft 130 kts 159°
2026-05-05 19:10 47.24047 8.73645 2686 ft 129 kts 160°
2026-05-05 19:11 47.23217 8.74122 2557 ft 128 kts 160°
2026-05-05 19:11 47.22391 8.74590 2430 ft 127 kts 160°
2026-05-05 19:11 47.21568 8.75048 2312 ft 126 kts 159°
2026-05-05 19:11 47.20821 8.75721 2199 ft 126 kts 138°
2026-05-05 19:12 47.20248 8.76653 2150 ft 123 kts 129°
2026-05-05 19:12 47.19691 8.77561 2140 ft 112 kts 149°
2026-05-05 19:12 47.19065 8.77714 2332 ft 83 kts 205°
2026-05-05 19:12 47.18904 8.77069 2480 ft 72 kts 291°
2026-05-05 19:13 47.19234 8.76399 2223 ft 94 kts 303°
2026-05-05 19:13 47.19705 8.75823 2050 ft 89 kts 354°
2026-05-05 19:13 47.20086 8.76345 1827 ft 77 kts 104°
2026-05-05 19:13 47.19764 8.76601 1716 ft 53 kts 205°
2026-05-05 19:14 47.19513 8.76369 1675 ft 22 kts 208°
2026-05-05 19:14 47.19421 8.76370 1623 ft 12 kts 114°
2026-05-05 19:14 47.19413 8.76396 1598 ft 0 kts 100°
2026-05-05 19:14 47.19413 8.76397 1600 ft 0 kts 99°
2026-05-05 19:29 47.19413 8.76392 1598 ft 1 kts 93°
2026-05-05 19:29 47.19400 8.76420 1660 ft 7 kts 359°
2026-05-05 19:29 47.19505 8.76353 1796 ft 31 kts 323°
2026-05-05 19:29 47.19696 8.76099 1931 ft 43 kts 312°
2026-05-05 19:30 47.19911 8.75767 2025 ft 45 kts 314°
2026-05-05 19:30 47.20119 8.75428 2063 ft 44 kts 311°
2026-05-05 19:30 47.20336 8.75094 2063 ft 46 kts 320°
2026-05-05 19:30 47.20583 8.74805 2064 ft 45 kts 324°
2026-05-05 19:31 47.20826 8.74534 2065 ft 41 kts 324°
2026-05-05 19:31 47.20999 8.74329 2048 ft 21 kts 323°
2026-05-05 19:31 47.21068 8.74244 1812 ft 11 kts 323°
2026-05-05 19:31 47.21073 8.74137 1992 ft 19 kts 13°
2026-05-05 19:32 47.21234 8.74158 1624 ft 29 kts
2026-05-05 19:32 47.21456 8.74135 1782 ft 37 kts
2026-05-05 19:32 47.21710 8.74134 1873 ft 37 kts 352°
2026-05-05 19:32 47.21978 8.73958 2129 ft 46 kts 320°
2026-05-05 19:33 47.22204 8.73651 2343 ft 43 kts 317°
2026-05-05 19:33 47.22428 8.73339 2356 ft 46 kts 316°
2026-05-05 19:33 47.22660 8.73021 2380 ft 43 kts 319°
2026-05-05 19:33 47.22864 8.72743 2399 ft 38 kts 317°
2026-05-05 19:34 47.23063 8.72472 2398 ft 40 kts 318°
2026-05-05 19:34 47.23281 8.72174 2447 ft 46 kts 319°
2026-05-05 19:34 47.23575 8.71795 2531 ft 66 kts 319°
2026-05-05 19:35 47.24280 8.70907 2523 ft 91 kts 319°
2026-05-05 19:35 47.24794 8.70264 2437 ft 101 kts 320°
2026-05-05 19:35 47.25337 8.69589 2383 ft 103 kts 320°
2026-05-05 19:35 47.25884 8.68918 2362 ft 101 kts 321°
2026-05-05 19:36 47.26413 8.68279 2361 ft 98 kts 321°
2026-05-05 19:36 47.26950 8.67643 2521 ft 101 kts 322°
2026-05-05 19:36 47.27512 8.67000 2777 ft 104 kts 322°
2026-05-05 19:36 47.28090 8.66342 2972 ft 106 kts 322°
2026-05-05 19:37 47.28686 8.65653 3162 ft 108 kts 322°
2026-05-05 19:37 47.29273 8.64972 3332 ft 110 kts 322°
2026-05-05 19:37 47.29876 8.64271 3496 ft 111 kts 322°
2026-05-05 19:37 47.30498 8.63545 3484 ft 119 kts 321°
2026-05-05 19:38 47.31166 8.62752 3354 ft 128 kts 321°
2026-05-05 19:38 47.31877 8.61907 3178 ft 134 kts 321°
2026-05-05 19:38 47.32592 8.61034 3097 ft 132 kts 321°
2026-05-05 19:38 47.33309 8.60191 3056 ft 131 kts 322°
2026-05-05 19:39 47.34022 8.59365 3019 ft 130 kts 322°
2026-05-05 19:39 47.34734 8.58541 2977 ft 130 kts 322°
2026-05-05 19:39 47.35392 8.57629 2891 ft 133 kts 306°
2026-05-05 19:39 47.35876 8.56461 2741 ft 135 kts 298°
2026-05-05 19:40 47.36280 8.55200 2566 ft 136 kts 291°
2026-05-05 19:40 47.36583 8.53882 2415 ft 136 kts 285°
2026-05-05 19:40 47.36991 8.52708 2219 ft 123 kts 311°
2026-05-05 19:40 47.37576 8.52101 2088 ft 105 kts 350°
2026-05-05 19:41 47.38145 8.52207 1955 ft 88 kts 20°
2026-05-05 19:41 47.38601 8.52621 1886 ft 69 kts 69°
2026-05-05 19:41 47.38532 8.53233 1743 ft 57 kts 129°
2026-05-05 19:41 47.38353 8.53630 1707 ft 40 kts 121°
2026-05-05 19:42 47.38203 8.53944 1714 ft 36 kts 136°
2026-05-05 19:42 47.38088 8.54304 1674 ft 41 kts 121°
2026-05-05 19:42 47.37959 8.54588 1680 ft 28 kts 123°
2026-05-05 19:42 47.37879 8.54799 1661 ft 26 kts 124°
2026-05-05 19:43 47.37796 8.54945 1643 ft 9 kts 127°
2026-05-05 19:43 47.37753 8.55025 1629 ft 7 kts 128°
2026-05-05 19:43 47.37710 8.55080 1600 ft 5 kts 129°
2026-05-05 19:43 47.37699 8.55106 1579 ft 1 kts 131°
2026-05-05 19:44 47.37698 8.55111 1577 ft 0 kts 133°
2026-05-05 19:57 47.37692 8.55222 1683 ft 29 kts 107°
2026-05-05 19:57 47.37656 8.55497 1855 ft 54 kts 103°
2026-05-05 19:57 47.37661 8.56404 2205 ft 76 kts 72°
2026-05-05 19:57 47.37859 8.57147 2412 ft 83 kts 69°
2026-05-05 19:58 47.38078 8.57956 2605 ft 87 kts 70°
2026-05-05 19:58 47.38322 8.58799 2637 ft 91 kts 64°
2026-05-05 19:58 47.38643 8.59606 2442 ft 100 kts 56°
2026-05-05 19:58 47.39087 8.60406 2155 ft 102 kts 46°
2026-05-05 19:59 47.39544 8.61162 1963 ft 93 kts 58°
2026-05-05 19:59 47.39771 8.61950 1852 ft 74 kts 78°
2026-05-05 19:59 47.39850 8.62613 1752 ft 59 kts 89°
2026-05-05 19:59 47.39851 8.63206 1654 ft 57 kts 96°
2026-05-05 20:00 47.39861 8.63707 1653 ft 30 kts 334°
2026-05-05 20:00 47.39839 8.63546 1482 ft 25 kts 199°
2026-05-05 20:00 47.39741 8.63624 1475 ft 15 kts 173°
2026-05-05 20:00 47.39725 8.63766 1474 ft 16 kts 179°
2026-05-05 20:01 47.39626 8.63764 1439 ft 6 kts 185°
2026-05-05 20:01 47.39615 8.63763 1430 ft 0 kts 186°
2026-05-05 20:01 47.39614 8.63763 1430 ft 0 kts 187°